+ View the NASA Portal
+ Center for Near-Earth Object Studies
IMPORTANT:
The SSD Announcement email list is now available. Major changes are coming in the near future, including possible hostname and/or URL changes. To be notified of such changes, subscribe to this email list.
Please visit
this page
for more details.
Don't show this message again
JPL Small-Body Database Browser
Search:
[
help
]
452613 (2005 QD92)
Classification:
Main-belt Asteroid
SPK-ID:
2452613
[
Ephemeris
|
Orbit Diagram
|
Orbital Elements
|
Mission Design
|
Physical Parameters
|
Discovery Circumstances
]
[ show orbit diagram ]
Orbital Elements at Epoch 2458600.5 (2019-Apr-27.0) TDB
Reference:
JPL 10
(heliocentric ecliptic J2000)
Element
Value
Uncertainty (1-sigma)
Units
e
.2285049415483655
1.5458e-07
a
2.193378628875075
7.9515e-09
au
q
1.692180773490542
3.3867e-07
au
i
.8740138522406982
8.6279e-06
deg
node
218.7248683063142
0.00058404
deg
peri
105.8768389289856
0.00058525
deg
M
84.85544719861581
2.3975e-05
deg
t
p
2458320.829882989103
(2018-Jul-21.32988299)
7.8993e-05
TDB
period
1186.502993594089
3.25
6.452e-06
1.766e-08
d
yr
n
.3034126352344954
1.6499e-09
deg/d
Q
2.694576484259608
9.7684e-09
au
Orbit Determination Parameters
# obs. used (total)
193
data-arc span
5834 days (15.97 yr)
first obs. used
2002-11-13
last obs. used
2018-11-03
planetary ephem.
DE431
SB-pert. ephem.
SB431-N16
condition code
0
norm. resid. RMS
.49723
source
ORB
producer
Otto Matic
solution date
2019-Jul-14 04:27:43
Additional Information
Earth MOID
= .679507 au
Jupiter MOID
= 2.63791 au
T_jup
= 3.636
[ show covariance matrix ]
[
Ephemeris
|
Orbit Diagram
|
Orbital Elements
|
Mission Design
|
Physical Parameters
|
Discovery Circumstances
]
Physical Parameter Table
Parameter
Symbol
Value
Units
Sigma
Reference
Notes
absolute magnitude
H
18.4
n/a
MPO460667
452613 (2005 QD92)
Discovered 2005-Aug-26 by LONEOS at Anderson Mesa
Reference:
Last Updated:
2016-01-04
[
Ephemeris
|
Orbit Diagram
|
Orbital Elements
|
Mission Design
|
Physical Parameters
|
Discovery Circumstances
]
2019-Dec-09 07:45 UT
(server date/time)
Site Manager:
Ryan S. Park
Webmaster
:
Alan B. Chamberlin